STARLINK-34391

Last updated on Thu Jul 03 2025 00:02:06 GMT+0000 (Coordinated Universal Time)

1 64298U 25123H 25183.58335648 .00057841 00000+0 93745-3 0 9998 2 64298 69.9997 120.0984 0003516 268.5910 310.9486 15.52477206 4969
UTC large
Height (km)
Speed (km/s)
/
Latitude / Longitude
Inclination (degrees)
Orbital Period (minutes)
Azimuth
Elevation
Range (km)
Doppler Factor

Next 0 passes for location: London (51.5072 / 0.1276)

Sorry there are no passes over London.